Time,TemperatureF,DewpointF,PressureIn,WindDirection,WindDirectionDegrees,WindSpeedMPH,WindSpeedGustMPH,Humidity,HourlyPrecipIn,Conditions,Clouds,dailyrainin,SoftwareType,DateUTC
2013-04-01 00:00:00,59.1,57.7,29.92,SSE,167,0.0,-999.0,95,0.00,,,0.05,Wunderground v.1.15,2013-04-01 04:00:00,
2013-04-01 00:30:00,59.1,57.4,29.91,West,278,0.0,-999.0,94,0.00,,,0.00,Wunderground v.1.15,2013-04-01 04:30:00,
2013-04-01 01:00:00,59.4,57.4,29.92,SSW,207,0.0,-999.0,93,0.00,,,0.00,Wunderground v.1.15,2013-04-01 05:00:00,
2013-04-01 01:30:00,59.4,57.7,29.92,SE,146,0.0,-999.0,94,0.00,,,0.00,Wunderground v.1.15,2013-04-01 05:30:00,
2013-04-01 02:00:00,59.3,57.6,29.91,ESE,117,0.0,-999.0,94,0.00,,,0.01,Wunderground v.1.15,2013-04-01 06:00:00,
2013-04-01 02:30:00,59.5,57.8,29.90,SSE,159,0.0,-999.0,94,0.00,,,0.01,Wunderground v.1.15,2013-04-01 06:30:00,
2013-04-01 03:00:00,59.5,58.1,29.91,SSE,159,0.0,-999.0,95,0.00,,,0.01,Wunderground v.1.15,2013-04-01 07:00:00,
2013-04-01 03:30:00,59.4,58.0,29.90,South,169,1.0,-999.0,95,0.13,,,0.08,Wunderground v.1.15,2013-04-01 07:30:00,
2013-04-01 04:00:00,58.6,57.5,29.88,South,169,0.0,-999.0,96,0.00,,,0.08,Wunderground v.1.15,2013-04-01 08:00:00,
2013-04-01 04:30:00,57.4,56.3,29.87,South,169,0.0,-999.0,96,0.00,,,0.08,Wunderground v.1.15,2013-04-01 08:30:00,
2013-04-01 05:00:00,56.5,55.7,29.87,SSE,148,0.0,-999.0,97,0.00,,,0.08,Wunderground v.1.15,2013-04-01 09:00:00,
2013-04-01 05:30:00,56.8,56.2,29.88,East,96,0.0,-999.0,98,0.40,,,0.10,Wunderground v.1.15,2013-04-01 09:30:00,
2013-04-01 06:00:00,57.4,56.6,29.88,East,96,0.0,-999.0,97,0.00,,,0.11,Wunderground v.1.15,2013-04-01 10:00:00,
2013-04-01 06:30:00,56.8,56.0,29.88,East,96,0.0,-999.0,97,0.00,,,0.11,Wunderground v.1.15,2013-04-01 10:30:00,
2013-04-01 07:00:00,57.0,56.4,29.89,East,96,0.0,-999.0,98,0.00,,,0.11,Wunderground v.1.15,2013-04-01 11:00:00,
2013-04-01 07:30:00,57.8,57.2,29.93,NW,306,0.0,-999.0,98,0.00,,,0.11,Wunderground v.1.15,2013-04-01 11:30:00,
2013-04-01 08:00:00,58.7,57.9,29.90,NNW,327,2.0,-999.0,97,0.05,,,0.25,Wunderground v.1.15,2013-04-01 12:00:00,
2013-04-01 08:30:00,59.2,58.3,29.90,South,178,0.0,0.0,97,0.00,,,0.26,Wunderground v.1.15,2013-04-01 12:30:00,
2013-04-01 09:00:00,60.6,59.7,29.92,SW,229,0.0,0.0,97,0.00,,,0.26,Wunderground v.1.15,2013-04-01 13:00:00,
2013-04-01 09:30:00,61.9,60.5,29.92,SE,144,0.0,8.0,95,0.00,,,0.26,Wunderground v.1.15,2013-04-01 13:30:00,
2013-04-01 10:00:00,63.4,61.0,29.92,East,83,0.0,8.0,92,0.00,,,0.26,Wunderground v.1.15,2013-04-01 14:00:00,
2013-04-01 10:30:00,64.2,61.2,29.92,SW,215,0.0,8.0,90,0.00,,,0.26,Wunderground v.1.15,2013-04-01 14:30:00,
2013-04-01 11:00:00,63.9,60.9,29.92,NNW,330,0.0,8.0,90,0.00,,,0.26,Wunderground v.1.15,2013-04-01 15:00:00,
2013-04-01 11:30:00,66.7,62.4,29.91,NNW,338,2.0,8.0,86,0.00,,,0.26,Wunderground v.1.15,2013-04-01 15:30:00,
2013-04-01 12:00:00,67.3,61.6,29.91,NNW,345,2.0,8.0,82,0.00,,,0.26,Wunderground v.1.15,2013-04-01 16:00:00,
2013-04-01 12:30:00,68.4,62.0,29.91,NW,305,2.0,8.0,80,0.00,,,0.26,Wunderground v.1.15,2013-04-01 16:30:00,
2013-04-01 12:38:00,68.9,61.0,29.91,SE,133,3.0,8.0,76,0.00,,,0.26,Wunderground v.1.15,2013-04-01 16:38:00,
2013-04-01 13:00:00,70.2,60.4,29.90,WNW,290,3.0,3.0,71,0.00,,,0.26,Wunderground v.1.15,2013-04-01 17:00:00,
2013-04-01 13:30:00,70.4,60.5,29.89,West,271,2.0,8.0,71,0.00,,,0.26,Wunderground v.1.15,2013-04-01 17:30:00,
2013-04-01 14:00:00,71.7,59.7,29.88,North,354,1.0,10.0,66,0.00,,,0.26,Wunderground v.1.15,2013-04-01 18:00:00,
2013-04-01 14:30:00,72.0,59.6,29.86,WNW,300,3.0,3.0,65,0.00,,,0.26,Wunderground v.1.15,2013-04-01 18:30:00,
2013-04-01 15:00:00,74.2,58.9,29.85,WNW,289,2.0,2.0,59,0.00,,,0.26,Wunderground v.1.15,2013-04-01 19:00:00,
2013-04-01 15:30:00,75.5,58.7,29.84,WNW,297,2.0,8.0,56,0.00,,,0.26,Wunderground v.1.15,2013-04-01 19:30:00,
2013-04-01 16:00:00,74.8,59.0,29.84,SW,227,3.0,3.0,58,0.00,,,0.26,Wunderground v.1.15,2013-04-01 20:00:00,
2013-04-01 16:30:00,74.5,56.2,29.83,NW,307,3.0,3.0,53,0.00,,,0.26,Wunderground v.1.15,2013-04-01 20:30:00,
2013-04-01 17:00:00,75.4,56.5,29.83,North,354,1.0,1.0,52,0.00,,,0.26,Wunderground v.1.15,2013-04-01 21:00:00,
2013-04-01 17:30:00,74.4,56.2,29.84,West,259,2.0,2.0,53,0.00,,,0.26,Wunderground v.1.15,2013-04-01 21:30:00,
2013-04-01 18:00:00,73.7,55.0,29.84,West,278,2.0,15.0,52,0.00,,,0.26,Wunderground v.1.15,2013-04-01 22:00:00,
2013-04-01 18:30:00,73.2,55.0,29.85,WNW,292,2.0,15.0,53,0.00,,,0.26,Wunderground v.1.15,2013-04-01 22:30:00,
2013-04-01 19:00:00,72.2,56.6,29.85,NW,324,1.0,1.0,58,0.00,,,0.26,Wunderground v.1.15,2013-04-01 23:00:00,
2013-04-01 19:30:00,69.0,57.2,29.86,NW,307,0.0,15.0,66,0.00,,,0.26,Wunderground v.1.15,2013-04-01 23:30:00,
2013-04-01 20:00:00,63.2,57.3,29.87,SW,222,0.0,15.0,81,0.00,,,0.26,Wunderground v.1.15,2013-04-02 00:00:00,
2013-04-01 20:30:00,60.0,56.1,29.88,SW,222,0.0,15.0,87,0.00,,,0.26,Wunderground v.1.15,2013-04-02 00:30:00,
2013-04-01 21:00:00,57.9,55.3,29.88,SW,222,0.0,15.0,91,0.00,,,0.26,Wunderground v.1.15,2013-04-02 01:00:00,
2013-04-01 21:30:00,56.5,54.5,29.89,SW,222,0.0,15.0,93,0.00,,,0.26,Wunderground v.1.15,2013-04-02 01:30:00,
2013-04-01 22:00:00,55.2,53.5,29.90,SW,222,0.0,15.0,94,0.00,,,0.26,Wunderground v.1.15,2013-04-02 02:00:00,
2013-04-01 22:30:00,54.1,52.7,29.91,SW,222,0.0,15.0,95,0.00,,,0.26,Wunderground v.1.15,2013-04-02 02:30:00,
2013-04-01 23:00:00,52.9,51.8,29.92,SW,222,0.0,15.0,96,0.00,,,0.26,Wunderground v.1.15,2013-04-02 03:00:00,
2013-04-01 23:30:00,51.8,50.7,29.92,SW,223,0.0,15.0,96,0.00,,,0.26,Wunderground v.1.15,2013-04-02 03:30:00,